Sedona, AZ

8:20 PM MST on October 23, 2019 (GMT -0700)
Sedona

Weather History for KSEZ - August, 2019

Change the Weather History Date:

Tuesday, August 6, 2019

  Actual Average Record
Temperature  
Mean Temperature 81 °F -  
Max Temperature 93 °F 96 °F 96 °F (2012)
Min Temperature 69 °F 64 °F 62 °F (2013)
Cooling Degree Days 16    
Growing Degree Days 31 (Base 50)    
Moisture  
Dew Point 54 °F    
Average Humidity 42    
Maximum Humidity 78    
Minimum Humidity 26    
Precipitation  
Precipitation 0.00 in - - ()
Sea Level Pressure  
Sea Level Pressure 30.18 in    
Wind  
Wind Speed 7 mph (ESE)    
Max Wind Speed 20 mph    
Max Gust Speed 24 mph    
Visibility 10 miles    
Events Rain    
Averages and records for this station are not official NWS values.
T = Trace of Precipitation, MM = Missing Value Source: NWS Daily Summary

Daily Weather History Graph

Daily Weather History Graph

Search for Another Location

Airport or City:

Astronomy

Aug. 06, 2019 Rise Set
Actual Time 5:40 AM MST 7:25 PM MST
Civil Twilight 5:13 AM MST 7:52 PM MST
Nautical Twilight 4:40 AM MST 8:25 PM MST
Astronomical Twilight 4:05 AM MST 9:00 PM MST
Moon 11:54 AM MST (8/6) 11:28 PM MST (8/6)
Length of Visible Light 14h 39m
Length of Day
13h 44m
Waxing Crescent, 40% of the Moon is Illuminated
Aug 6
Waxing Crescent
Aug 7
First Quarter
Aug 15
Full
Aug 23
Last Quarter
Aug 30
New

Hourly Weather History & Observations

Time (MST) Temp. Heat Index Dew Point Humidity Pressure Visibility Wind Dir Wind Speed Gust Speed Precip Events Conditions
12:15 AM 77.0 °F - 51.8 °F 41% 30.16 in 10.0 mi SSE 19.6 mph - N/A   Clear
12:35 AM 77.0 °F - 53.6 °F 44% 30.18 in 10.0 mi SE 11.5 mph - N/A   Clear
12:55 AM 77.0 °F - 51.8 °F 41% 30.18 in 10.0 mi East 5.8 mph - N/A   Clear
1:15 AM 77.0 °F - 51.8 °F 41% 30.17 in 10.0 mi Calm Calm - N/A   Clear
1:35 AM 77.0 °F - 51.8 °F 41% 30.17 in 10.0 mi Calm Calm - N/A   Scattered Clouds
1:55 AM 77.0 °F - 51.8 °F 41% 30.17 in 10.0 mi Calm Calm - N/A   Scattered Clouds
2:15 AM 77.0 °F - 51.8 °F 41% 30.17 in 10.0 mi Calm Calm - N/A   Clear
2:35 AM 77.0 °F - 51.8 °F 41% 30.17 in 10.0 mi Calm Calm - N/A   Clear
2:55 AM 75.2 °F - 53.6 °F 47% 30.17 in 10.0 mi Calm Calm - N/A   Clear
3:15 AM 75.2 °F - 53.6 °F 47% 30.17 in 10.0 mi West 3.5 mph - N/A   Clear
3:35 AM 75.2 °F - 51.8 °F 44% 30.17 in 10.0 mi Calm Calm - N/A   Scattered Clouds
3:55 AM 77.0 °F - 51.8 °F 41% 30.17 in 10.0 mi Calm Calm - N/A   Scattered Clouds
4:15 AM 77.0 °F - 51.8 °F 41% 30.17 in 10.0 mi Calm Calm - N/A   Scattered Clouds
4:35 AM 75.2 °F - 51.8 °F 44% 30.17 in 10.0 mi NE 5.8 mph - N/A   Scattered Clouds
4:55 AM 75.2 °F - 51.8 °F 44% 30.17 in 10.0 mi NNE 6.9 mph - N/A   Clear
5:15 AM 73.4 °F - 51.8 °F 47% 30.17 in 10.0 mi NNE 8.1 mph - N/A   Scattered Clouds
5:35 AM 75.2 °F - 51.8 °F 44% 30.17 in 10.0 mi NE 9.2 mph - N/A   Scattered Clouds
5:55 AM 75.2 °F - 51.8 °F 44% 30.18 in 10.0 mi NNE 9.2 mph - N/A   Mostly Cloudy
6:15 AM 75.2 °F - 51.8 °F 44% 30.19 in 10.0 mi NE 8.1 mph - N/A   Overcast
6:35 AM 75.2 °F - 51.8 °F 44% 30.19 in 10.0 mi NE 3.5 mph - N/A   Overcast
6:55 AM 75.2 °F - 53.6 °F 47% 30.20 in 10.0 mi NNE 6.9 mph - N/A   Overcast
7:15 AM 75.2 °F - 53.6 °F 47% 30.20 in 10.0 mi NNE 9.2 mph - N/A   Mostly Cloudy
7:35 AM 77.0 °F - 53.6 °F 44% 30.20 in 10.0 mi NE 9.2 mph - N/A   Scattered Clouds
7:55 AM 77.0 °F - 53.6 °F 44% 30.21 in 10.0 mi ENE 5.8 mph - N/A   Scattered Clouds
8:15 AM 78.8 °F - 55.4 °F 44% 30.21 in 10.0 mi Calm Calm - N/A   Scattered Clouds
8:35 AM 80.6 °F 80.5 °F 55.4 °F 42% 30.21 in 10.0 mi Calm Calm - N/A   Scattered Clouds
8:55 AM 84.2 °F 83.0 °F 55.4 °F 37% 30.21 in 10.0 mi SE 3.5 mph - N/A   Clear
9:15 AM 84.2 °F 83.0 °F 55.4 °F 37% 30.21 in 10.0 mi ESE 4.6 mph - N/A   Clear
9:35 AM 86.0 °F 84.2 °F 53.6 °F 33% 30.21 in 10.0 mi SSE 5.8 mph - N/A   Clear
9:55 AM 87.8 °F 85.7 °F 53.6 °F 31% 30.21 in 10.0 mi ESE 4.6 mph - N/A   Clear
10:15 AM 89.6 °F - 51.8 °F 27% 30.21 in 10.0 mi SSE 5.8 mph - N/A   Mostly Cloudy
10:35 AM 86.0 °F - 51.8 °F 31% 30.21 in 10.0 mi SSW 6.9 mph - N/A   Mostly Cloudy
10:55 AM 87.8 °F - 51.8 °F 29% 30.21 in 10.0 mi SW 6.9 mph - N/A   Scattered Clouds
11:15 AM 91.4 °F 89.1 °F 53.6 °F 28% 30.20 in 10.0 mi SSE 11.5 mph 17.3 mph N/A   Clear
11:55 AM 91.4 °F 89.4 °F 55.4 °F 29% 30.19 in 10.0 mi SSE 15.0 mph 19.6 mph N/A   Clear
12:15 PM 91.4 °F 89.4 °F 55.4 °F 29% 30.19 in 10.0 mi SE 12.7 mph 20.7 mph N/A   Clear
12:35 PM 93.2 °F 90.8 °F 53.6 °F 26% 30.19 in 10.0 mi SSE 13.8 mph 24.2 mph N/A   Clear
12:55 PM 89.6 °F 87.3 °F 53.6 °F 29% 30.18 in 10.0 mi SSE 17.3 mph 24.2 mph N/A   Clear
1:15 PM 89.6 °F 87.3 °F 53.6 °F 29% 30.18 in 10.0 mi SSE 12.7 mph 21.9 mph N/A   Clear
1:35 PM 86.0 °F 84.2 °F 53.6 °F 33% 30.18 in 10.0 mi SSE 15.0 mph 21.9 mph N/A   Clear
1:55 PM 84.2 °F 82.8 °F 53.6 °F 35% 30.18 in 10.0 mi SE 12.7 mph 19.6 mph N/A   Scattered Clouds
2:15 PM 82.4 °F 81.4 °F 53.6 °F 37% 30.17 in 10.0 mi South 6.9 mph - N/A   Scattered Clouds
2:35 PM 82.4 °F 81.4 °F 53.6 °F 37% 30.17 in 10.0 mi South 6.9 mph - N/A   Clear
2:55 PM 82.4 °F 81.7 °F 55.4 °F 39% 30.17 in 10.0 mi SSE 8.1 mph - N/A   Mostly Cloudy
3:55 PM 78.8 °F - 59.0 °F 51% 30.14 in 10.0 mi Calm Calm - N/A Rain Light Rain
4:15 PM 80.6 °F 80.5 °F 55.4 °F 42% 30.14 in 10.0 mi ESE 3.5 mph - N/A   Scattered Clouds
4:35 PM 80.6 °F 80.5 °F 55.4 °F 42% 30.13 in 10.0 mi ESE 5.8 mph - N/A   Scattered Clouds
4:55 PM 80.6 °F 80.5 °F 55.4 °F 42% 30.13 in 10.0 mi Calm Calm - N/A   Scattered Clouds
5:15 PM 80.6 °F 80.5 °F 55.4 °F 42% 30.12 in 10.0 mi Calm Calm - N/A   Scattered Clouds
5:35 PM 80.6 °F 80.5 °F 55.4 °F 42% 30.12 in 10.0 mi SE 3.5 mph - N/A   Mostly Cloudy
5:55 PM 80.6 °F 80.5 °F 55.4 °F 42% 30.12 in 10.0 mi Calm Calm - N/A   Scattered Clouds
6:35 PM 80.6 °F 80.5 °F 55.4 °F 42% 30.13 in 10.0 mi SSE 3.5 mph - N/A   Scattered Clouds
6:55 PM 80.6 °F 80.5 °F 55.4 °F 42% 30.14 in 10.0 mi South 3.5 mph - N/A   Mostly Cloudy
7:40 PM 78.8 °F - 55.4 °F 44% 30.15 in 10.0 mi West 4.6 mph - N/A   Overcast
7:55 PM 77.0 °F - 55.4 °F 47% 30.16 in 10.0 mi West 3.5 mph - N/A   Overcast
8:15 PM 77.0 °F - 55.4 °F 47% 30.17 in 10.0 mi Calm Calm - N/A   Overcast
8:35 PM 77.0 °F - 55.4 °F 47% 30.17 in 10.0 mi WNW 3.5 mph - N/A Rain Light Rain
8:55 PM 77.0 °F - 55.4 °F 47% 30.18 in 10.0 mi Calm Calm - N/A   Overcast
9:15 PM 77.0 °F - 55.4 °F 47% 30.17 in 10.0 mi NNW 5.8 mph - N/A   Mostly Cloudy
9:35 PM 75.2 °F - 55.4 °F 50% 30.17 in 10.0 mi ENE 3.5 mph - N/A   Overcast
9:55 PM 77.0 °F - 55.4 °F 47% 30.18 in 10.0 mi NE 4.6 mph - N/A   Overcast
10:15 PM 77.0 °F - 55.4 °F 47% 30.19 in 10.0 mi NNE 4.6 mph - N/A   Overcast
10:35 PM 77.0 °F - 55.4 °F 47% 30.19 in 10.0 mi NE 5.8 mph - N/A   Overcast
10:55 PM 77.0 °F - 57.2 °F 50% 30.19 in 10.0 mi NE 8.1 mph - N/A   Overcast
11:15 PM 75.2 °F - 59.0 °F 57% 30.21 in 10.0 mi SSE 5.8 mph - N/A   Overcast
11:35 PM 69.8 °F - 62.6 °F 78% 30.22 in 10.0 mi SE 6.9 mph 18.4 mph N/A Rain Light Rain
11:55 PM 71.6 °F - 59.0 °F 64% 30.21 in 10.0 mi NE 10.4 mph - N/A Rain Light Rain